20060716,000020,777600,33.486665,-119.344220,26.2,16.000,33.692,42.435,2268.14,0.0,10.986,15.917, NaN, NaN,24.742,   NaN,17.26,1010.53,94.37,17.26,15.1,12.8,9.2,8.8,290.3,287.7,7.8,7.4,NaN, NaN,15.0,256.7,274.2,1153008019,1153008019,2,3.7,000020,000019,255.8,33.486660,-119.344062,3.76,NaN,NaN,16.004, NaN,NaN,NaN, NaN, NaN
20060716,000050,777629,33.486416,-119.344897,26.2,15.971,33.705,42.422,2262.47,0.0,11.023,15.923, NaN, NaN,24.758,   NaN,17.29,1010.43,94.40,17.29,27.4,22.3,8.7,8.4,292.9,287.1,7.1,6.7,NaN, NaN,17.0,245.1,239.7,1153008049,1153008049,2,4.6,000050,000049,245.2,33.486418,-119.344740,4.89,NaN,NaN,15.975, NaN,NaN,NaN, NaN, NaN
20060716,000120,777659,33.485995,-119.345670,26.3,15.958,33.701,42.405,2253.31,0.0,11.098,15.932, NaN, NaN,24.758,   NaN,17.28,1010.44,94.40,17.27,37.6,29.7,8.1,7.6,297.0,288.4,6.4,5.6,NaN, NaN,17.0,237.6,237.6,1153008079,1153008079,2,5.9,000080,000079,237.0,33.486028,-119.345523,5.75,NaN,NaN,15.962, NaN,NaN,NaN, NaN, NaN
20060716,000150,777689,33.485416,-119.346495,26.1,15.995,33.686,42.424,2246.40,0.0,11.172,15.958, NaN, NaN,24.738,   NaN,17.25,1010.45,94.37,17.25,42.5,33.9,7.9,6.9,301.2,294.2,6.1,4.8,NaN, NaN,17.0,237.4,227.5,1153008110,1153008109,2,6.8,000110,000109,237.9,33.485448,-119.346348,6.88,NaN,NaN,15.999, NaN,NaN,NaN, NaN, NaN
20060716,000220,777720,33.484856,-119.347413,26.3,16.082,33.676,42.495,2247.57,0.0,11.042,15.980, NaN, NaN,24.711,   NaN,17.24,1010.36,94.36,17.24,43.2,34.7,7.7,6.6,303.9,298.3,5.7,4.3,NaN, NaN,17.0,238.9,231.3,1153008139,1153008139,2,7.2,000140,000139,239.0,33.484886,-119.347270,6.91,NaN,NaN,16.086, NaN,NaN,NaN, NaN, NaN
20060716,000250,777750,33.484248,-119.348422,26.3,16.107,33.684,42.528,2244.18,0.0,11.004,16.010, NaN, NaN,24.711,   NaN,17.24,1010.39,94.44,17.24,40.6,32.2,7.6,7.0,304.6,296.5,5.4,4.4,NaN, NaN,17.0,237.4,233.3,1153008169,1153008169,2,8.1,000170,000169,237.2,33.484276,-119.348280,7.53,NaN,NaN,16.111, NaN,NaN,NaN, NaN, NaN
20060716,000320,777779,33.483598,-119.349470,26.4,16.131,33.690,42.558,2239.43,0.0,11.023,16.043, NaN, NaN,24.710,   NaN,17.23,1010.36,94.45,17.23,39.6,31.3,7.8,7.2,304.5,296.4,5.4,4.4,NaN, NaN,16.0,238.5,233.6,1153008199,1153008199,2,7.8,000200,000199,238.7,33.483626,-119.349327,7.86,NaN,NaN,16.135, NaN,NaN,NaN, NaN, NaN
20060716,000350,777809,33.482955,-119.350550,26.5,16.073,33.711,42.526,2240.87,0.0,11.228,16.078, NaN, NaN,24.740,   NaN,17.26,1010.32,94.46,17.26,38.1,31.0,8.0,7.4,303.6,296.9,5.4,4.5,NaN, NaN,16.0,237.2,233.2,1153008230,1153008229,2,8.2,000230,000229,237.0,33.482985,-119.350407,8.09,NaN,NaN,16.077, NaN,NaN,NaN, NaN, NaN
20060716,000420,777839,33.482273,-119.351610,26.6,16.135,33.679,42.549,2236.33,0.0,11.191,16.122, NaN, NaN,24.701,   NaN,17.23,1010.39,94.48,17.24,35.6,30.8,8.2,7.8,299.4,294.8,5.5,4.8,NaN, NaN,16.0,237.1,231.6,1153008259,1153008259,2,7.9,000260,000259,237.0,33.482315,-119.351470,8.14,NaN,NaN,16.139, NaN,NaN,NaN, NaN, NaN
20060716,000450,777869,33.481551,-119.352707,26.5,16.311,33.655,42.692,2236.61,0.0,11.060,16.163, NaN, NaN,24.643,   NaN,17.24,1010.39,94.54,17.23,34.4,30.6,8.9,8.0,295.7,294.0,5.9,4.9,NaN, NaN,16.0,237.5,224.7,1153008290,1153008289,2,8.7,000290,000289,237.7,33.481596,-119.352562,8.61,NaN,NaN,16.315, NaN,NaN,NaN, NaN, NaN
20060716,000520,777900,33.480843,-119.353853,26.5,16.367,33.675,42.767,2233.04,0.0,11.060,16.184, NaN, NaN,24.645,   NaN,17.18,1010.40,94.56,17.18,32.7,29.9,9.7,8.3,292.0,292.9,6.5,5.1,NaN, NaN,16.0,238.7,233.5,1153008319,1153008319,2,9.0,000320,000319,238.9,33.480878,-119.353702,8.79,NaN,NaN,16.371, NaN,NaN,NaN, NaN, NaN
20060716,000550,777930,33.480136,-119.354982,26.5,16.339,33.696,42.764,2231.79,0.0,11.116,16.195, NaN, NaN,24.667,   NaN,17.20,1010.46,94.58,17.20,32.7,29.2,9.9,8.5,292.1,292.0,6.6,5.1,NaN, NaN,18.0,238.7,231.7,1153008350,1153008349,2,8.7,000350,000349,238.7,33.480165,-119.354827,8.86,NaN,NaN,16.343, NaN,NaN,NaN, NaN, NaN
20060716,000620,777959,33.479398,-119.356120,26.4,16.336,33.699,42.765,2231.66,0.0,11.042,16.194, NaN, NaN,24.670,   NaN,17.21,1010.51,94.62,17.20,32.8,28.9,9.1,8.3,294.8,292.3,6.0,5.0,NaN, NaN,18.0,237.7,231.7,1153008379,1153008379,2,8.8,000380,000379,237.7,33.479430,-119.355967,8.96,NaN,NaN,16.340, NaN,NaN,NaN, NaN, NaN
20060716,000650,777989,33.478610,-119.357303,26.3,16.292,33.708,42.733,2230.96,0.0,11.079,16.189, NaN, NaN,24.687,   NaN,17.21,1010.46,94.64,17.21,30.7,28.9,9.3,8.5,291.5,292.4,6.0,5.0,NaN, NaN,18.0,238.3,230.0,1153008409,1153008409,2,8.7,000410,000409,238.3,33.478646,-119.357150,9.21,NaN,NaN,16.296, NaN,NaN,NaN, NaN, NaN
20060716,000720,778019,33.477863,-119.358563,26.7,16.273,33.703,42.709,2227.99,0.0,11.116,16.190, NaN, NaN,24.688,   NaN,17.19,1010.43,94.64,17.19,29.6,28.3,10.1,8.9,289.3,292.0,6.5,5.3,NaN, NaN,19.0,238.9,236.2,1153008439,1153008439,2,9.1,000440,000439,238.9,33.477886,-119.358413,9.52,NaN,NaN,16.277, NaN,NaN,NaN, NaN, NaN
20060716,000750,778049,33.477060,-119.359857,26.7,16.288,33.695,42.714,2225.54,0.0,11.060,16.189, NaN, NaN,24.678,   NaN,17.18,1010.48,94.66,17.18,28.5,27.6,10.2,9.2,288.8,291.2,6.4,5.4,NaN, NaN,18.0,238.5,236.5,1153008470,1153008469,2,9.5,000470,000469,238.5,33.477090,-119.359703,9.89,NaN,NaN,16.292, NaN,NaN,NaN, NaN, NaN
20060716,000820,778080,33.476240,-119.361182,26.4,16.313,33.692,42.734,2223.40,0.0,11.042,16.192, NaN, NaN,24.670,   NaN,17.18,1010.51,94.67,17.16,28.6,27.7,10.1,9.4,289.9,291.1,6.3,5.5,NaN, NaN,18.0,238.9,233.6,1153008499,1153008499,2,9.9,000500,000499,238.9,33.476273,-119.361027,10.01,NaN,NaN,16.317, NaN,NaN,NaN, NaN, NaN
20060716,000850,778109,33.475411,-119.362477,26.1,16.314,33.693,42.737,2226.79,0.0,11.042,16.187, NaN, NaN,24.671,   NaN,17.17,1010.57,94.69,17.17,30.4,28.0,10.1,9.2,293.0,293.3,6.3,5.3,NaN, NaN,18.0,237.7,228.5,1153008529,1153008529,2,10.1,000530,000529,237.7,33.475450,-119.362323,9.97,NaN,NaN,16.318, NaN,NaN,NaN, NaN, NaN
20060716,000920,778139,33.474608,-119.363742,26.4,16.305,33.702,42.738,2220.54,0.0,11.060,16.178, NaN, NaN,24.680,   NaN,17.16,1010.45,94.70,17.16,29.3,26.9,10.3,8.9,290.7,292.5,6.5,5.0,NaN, NaN,19.0,238.5,232.1,1153008559,1153008559,2,9.7,000560,000559,238.7,33.474631,-119.363587,9.75,NaN,NaN,16.309, NaN,NaN,NaN, NaN, NaN
20060716,000950,778169,33.473741,-119.365020,26.2,16.256,33.708,42.698,2218.77,0.0,11.172,16.167, NaN, NaN,24.696,   NaN,17.15,1010.60,94.69,17.15,27.6,26.2,10.7,9.2,286.9,290.0,6.7,5.2,NaN, NaN,19.0,239.0,229.2,1153008589,1153008589,2,10.3,000590,000589,239.2,33.473756,-119.364867,10.07,NaN,NaN,16.260, NaN,NaN,NaN, NaN, NaN
20060716,001020,778199,33.472923,-119.366288,26.6,16.247,33.703,42.683,2213.80,0.0,11.116,16.156, NaN, NaN,24.694,   NaN,17.15,1010.60,94.70,17.14,27.2,26.0,10.7,9.5,287.0,289.3,6.6,5.4,NaN, NaN,19.0,239.2,231.0,1153008619,1153008619,2,9.9,000620,000619,239.4,33.472943,-119.366143,9.79,NaN,NaN,16.251, NaN,NaN,NaN, NaN, NaN
20060716,001050,778230,33.472103,-119.367583,26.6,16.248,33.695,42.676,2215.14,0.0,11.191,16.154, NaN, NaN,24.688,   NaN,17.14,1010.53,94.68,17.14,27.3,26.1,10.4,9.4,288.2,289.7,6.4,5.4,NaN, NaN,18.0,239.4,235.3,1153008650,1153008649,2,9.9,000650,000649,238.9,33.472126,-119.367442,9.75,NaN,NaN,16.252, NaN,NaN,NaN, NaN, NaN
20060716,001120,778260,33.471236,-119.368855,26.6,16.260,33.691,42.682,2213.95,0.0,11.266,16.152, NaN, NaN,24.681,   NaN,17.13,1010.50,94.69,17.13,27.7,27.0,10.3,9.3,288.2,290.9,6.4,5.3,NaN, NaN,18.0,238.4,231.3,1153008679,1153008679,2,9.6,000680,000679,238.7,33.471266,-119.368698,10.10,NaN,NaN,16.264, NaN,NaN,NaN, NaN, NaN
20060716,001150,778289,33.470431,-119.370123,26.3,16.256,33.694,42.683,2211.01,0.0,11.322,16.126, NaN, NaN,24.685,   NaN,17.20,1010.61,94.72,17.18,28.4,26.6,10.7,9.2,288.1,290.7,6.8,5.3,NaN, NaN,17.0,239.2,233.3,1153008709,1153008709,2,9.5,000710,000709,238.9,33.470461,-119.369977,9.61,NaN,NaN,16.260, NaN,NaN,NaN, NaN, NaN
20060716,001220,778319,33.469611,-119.371400,26.6,16.188,33.712,42.638,2213.07,0.0,11.565,16.070, NaN, NaN,24.714,   NaN,17.18,1010.60,94.70,17.18,28.9,26.8,10.1,9.2,291.9,291.0,6.3,5.3,NaN, NaN,17.0,238.9,232.0,1153008739,1153008739,2,9.7,000740,000739,238.5,33.469635,-119.371253,9.72,NaN,NaN,16.192, NaN,NaN,NaN, NaN, NaN
20060716,001250,778349,33.468765,-119.372690,26.6,16.043,33.733,42.522,2207.72,0.0,11.882,16.011, NaN, NaN,24.763,   NaN,17.16,1010.45,94.66,17.15,29.4,27.5,9.8,9.1,293.1,292.5,6.0,5.2,NaN, NaN,17.0,238.9,235.0,1153008769,1153008769,2,9.5,000770,000769,238.9,33.468793,-119.372538,9.76,NaN,NaN,16.047, NaN,NaN,NaN, NaN, NaN
20060716,001320,778379,33.467921,-119.373992,26.2,15.984,33.708,42.437,2208.38,0.0,12.144,15.967, NaN, NaN,24.757,   NaN,17.19,1010.64,94.69,17.19,28.8,26.9,10.8,9.1,288.6,292.0,6.9,5.2,NaN, NaN,17.0,239.2,234.3,1153008799,1153008799,2,10.0,000800,000799,239.0,33.467951,-119.373840,9.80,NaN,NaN,15.988, NaN,NaN,NaN, NaN, NaN
20060716,001350,778410,33.467081,-119.375283,26.4,15.976,33.687,42.406,2208.70,0.0,12.219,15.937, NaN, NaN,24.744,   NaN,17.20,1010.61,94.66,17.19,28.2,26.2,11.1,9.4,287.1,290.1,7.1,5.3,NaN, NaN,17.0,238.4,232.7,1153008830,1153008829,2,9.8,000830,000829,238.2,33.467106,-119.375138,10.00,NaN,NaN,15.980, NaN,NaN,NaN, NaN, NaN
20060716,001420,778440,33.466216,-119.376572,26.4,15.978,33.682,42.403,2202.36,0.0,12.181,15.918, NaN, NaN,24.739,   NaN,17.20,1010.52,94.66,17.21,29.3,26.5,10.8,9.3,289.9,290.9,6.9,5.3,NaN, NaN,17.0,239.0,231.0,1153008859,1153008859,2,9.6,000860,000859,239.2,33.466245,-119.376428,10.05,NaN,NaN,15.982, NaN,NaN,NaN, NaN, NaN
20060716,001450,778469,33.465403,-119.377842,26.5,15.978,33.679,42.399,2198.06,0.0,12.256,15.904, NaN, NaN,24.736,   NaN,17.20,1010.42,94.65,17.20,30.2,27.0,10.4,9.3,292.2,291.5,6.6,5.4,NaN, NaN,17.0,238.8,238.4,1153008889,1153008889,2,9.1,000890,000889,238.4,33.465423,-119.377703,9.90,NaN,NaN,15.982, NaN,NaN,NaN, NaN, NaN
20060716,001520,778499,33.464563,-119.379078,26.4,15.980,33.671,42.393,2197.69,0.0,12.256,15.904, NaN, NaN,24.730,   NaN,17.22,1010.56,94.65,17.22,30.5,27.4,10.1,9.2,293.3,292.0,6.3,5.3,NaN, NaN,17.0,238.4,231.9,1153008919,1153008919,2,9.3,000920,000919,238.5,33.464593,-119.378938,9.93,NaN,NaN,15.984, NaN,NaN,NaN, NaN, NaN
20060716,001550,778529,33.463731,-119.380312,26.3,16.026,33.658,42.422,2200.68,0.0,12.275,15.912, NaN, NaN,24.710,   NaN,17.19,1010.46,94.65,17.19,30.8,27.7,10.1,9.1,293.0,292.4,6.4,5.3,NaN, NaN,17.0,239.5,229.0,1153008949,1153008949,2,9.7,000950,000949,239.7,33.463758,-119.380167,9.41,NaN,NaN,16.030, NaN,NaN,NaN, NaN, NaN
20060716,001620,778559,33.462910,-119.381557,26.4,16.049,33.662,42.447,2198.14,0.0,12.349,15.925, NaN, NaN,24.707,   NaN,17.18,1010.53,94.66,17.18,29.8,27.6,10.5,8.9,290.2,293.5,6.8,5.1,NaN, NaN,17.0,238.5,230.3,1153008980,1153008979,2,9.5,000980,000979,238.5,33.462940,-119.381417,9.51,NaN,NaN,16.053, NaN,NaN,NaN, NaN, NaN
20060716,001650,778590,33.462078,-119.382822,26.4,16.062,33.664,42.462,2192.53,0.0,12.368,15.945, NaN, NaN,24.706,   NaN,17.20,1010.51,94.64,17.20,30.3,28.0,10.2,8.8,292.8,295.0,6.4,5.0,NaN, NaN,18.0,239.9,228.8,1153009010,1153009009,2,10.0,001010,001009,239.9,33.462103,-119.382678,9.79,NaN,NaN,16.066, NaN,NaN,NaN, NaN, NaN
20060716,001720,778619,33.461273,-119.384092,26.5,16.074,33.662,42.472,2191.17,0.0,12.424,15.964, NaN, NaN,24.702,   NaN,17.21,1010.44,94.63,17.21,31.3,28.1,9.9,8.8,295.0,295.3,6.3,5.0,NaN, NaN,18.0,237.9,231.4,1153009039,1153009039,2,9.7,001040,001039,237.9,33.461295,-119.383947,9.70,NaN,NaN,16.078, NaN,NaN,NaN, NaN, NaN
20060716,001750,778649,33.460446,-119.385338,26.3,16.093,33.660,42.488,2186.96,0.0,12.368,15.979, NaN, NaN,24.696,   NaN,17.19,1010.37,94.63,17.20,31.7,28.5,9.9,8.6,295.8,296.5,6.3,4.9,NaN, NaN,19.0,239.5,234.5,1153009069,1153009069,2,9.5,001070,001069,239.5,33.460458,-119.385192,9.61,NaN,NaN,16.097, NaN,NaN,NaN, NaN, NaN
20060716,001820,778679,33.459601,-119.386597,26.4,16.050,33.679,42.467,2189.04,0.0,12.461,15.994, NaN, NaN,24.720,   NaN,17.20,1010.49,94.63,17.21,32.1,29.0,9.9,8.5,296.0,297.8,6.3,4.8,NaN, NaN,19.0,238.8,233.1,1153009099,1153009099,2,10.0,001100,001099,238.8,33.459620,-119.386457,9.91,NaN,NaN,16.054, NaN,NaN,NaN, NaN, NaN
20060716,001850,778709,33.458745,-119.387848,26.5,16.066,33.665,42.467,2183.25,0.0,12.312,16.001, NaN, NaN,24.706,   NaN,17.20,1010.43,94.62,17.20,33.5,29.2,9.4,8.4,300.2,299.1,6.0,4.7,NaN, NaN,19.0,238.0,228.5,1153009129,1153009129,2,10.0,001130,001129,238.0,33.458771,-119.387703,9.84,NaN,NaN,16.070, NaN,NaN,NaN, NaN, NaN
20060716,001920,778740,33.457875,-119.389083,26.4,16.076,33.660,42.471,2183.18,0.0,12.293,16.004, NaN, NaN,24.700,   NaN,17.19,1010.50,94.62,17.21,33.5,29.3,9.4,8.3,300.6,299.8,5.9,4.7,NaN, NaN,18.0,240.2,228.8,1153009159,1153009159,2,10.1,001160,001159,240.2,33.457895,-119.388942,9.79,NaN,NaN,16.080, NaN,NaN,NaN, NaN, NaN
20060716,001950,778770,33.457051,-119.390342,26.6,16.120,33.652,42.504,2175.02,0.0,12.275,15.998, NaN, NaN,24.683,   NaN,17.19,1010.48,94.60,17.19,32.1,28.9,9.5,8.5,297.8,298.3,6.0,4.8,NaN, NaN,18.0,239.3,234.3,1153009189,1153009189,2,10.0,001190,001189,239.3,33.457083,-119.390187,9.69,NaN,NaN,16.124, NaN,NaN,NaN, NaN, NaN
20060716,002020,778799,33.456190,-119.391600,26.5,16.100,33.663,42.498,2178.66,0.0,12.256,15.981, NaN, NaN,24.697,   NaN,17.21,1010.34,94.59,17.21,30.9,28.9,9.2,8.8,297.7,296.8,5.6,5.0,NaN, NaN,18.0,239.5,232.6,1153009219,1153009219,2,9.9,001220,001219,239.5,33.456218,-119.391447,9.72,NaN,NaN,16.104, NaN,NaN,NaN, NaN, NaN
20060716,002050,778829,33.455356,-119.392888,26.0,16.059,33.670,42.466,2179.59,0.0,12.237,15.960, NaN, NaN,24.711,   NaN,17.24,1010.46,94.59,17.24,31.9,28.9,9.7,8.7,297.0,297.9,6.1,4.9,NaN, NaN,18.0,239.5,229.1,1153009249,1153009249,2,10.2,001250,001249,239.4,33.455390,-119.392735,9.72,NaN,NaN,16.063, NaN,NaN,NaN, NaN, NaN
20060716,002120,778859,33.454535,-119.394162,26.5,16.033,33.666,42.437,2174.24,0.0,12.312,15.942, NaN, NaN,24.715,   NaN,17.20,1010.37,94.59,17.20,34.0,29.3,9.6,8.4,300.6,300.1,6.1,4.7,NaN, NaN,18.0,238.7,234.4,1153009280,1153009279,2,9.7,001280,001279,238.9,33.454576,-119.394007,9.58,NaN,NaN,16.037, NaN,NaN,NaN, NaN, NaN
20060716,002150,778889,33.453721,-119.395448,26.2,16.017,33.661,42.416,2175.84,0.0,12.331,15.934, NaN, NaN,24.714,   NaN,17.20,1010.40,94.59,17.20,33.5,29.6,9.4,8.4,300.1,299.8,6.0,4.8,NaN, NaN,19.0,238.7,226.9,1153009309,1153009309,2,9.9,001310,001309,238.5,33.453740,-119.395283,9.80,NaN,NaN,16.021, NaN,NaN,NaN, NaN, NaN
20060716,002220,778920,33.452883,-119.396722,26.3,16.015,33.658,42.411,2168.15,0.0,12.368,15.927, NaN, NaN,24.712,   NaN,17.19,1010.44,94.59,17.19,31.5,29.3,9.7,8.4,296.5,299.5,6.1,4.7,NaN, NaN,21.0,239.1,229.5,1153009339,1153009339,2,9.5,001340,001339,239.5,33.452905,-119.396553,9.77,NaN,NaN,16.019, NaN,NaN,NaN, NaN, NaN
20060716,002250,778950,33.452061,-119.398003,26.2,15.997,33.660,42.396,2168.59,0.0,12.480,15.923, NaN, NaN,24.717,   NaN,17.20,1010.41,94.58,17.20,31.2,29.2,9.4,8.3,297.6,300.3,5.8,4.6,NaN, NaN,20.0,238.9,230.2,1153009369,1153009369,2,10.0,001370,001369,238.4,33.452085,-119.397843,9.65,NaN,NaN,16.001, NaN,NaN,NaN, NaN, NaN
20060716,002320,778979,33.451205,-119.399268,26.6,16.009,33.652,42.398,2167.14,0.0,12.368,15.924, NaN, NaN,24.709,   NaN,17.22,1010.46,94.62,17.22,32.2,29.4,9.2,8.3,299.6,300.3,5.7,4.6,NaN, NaN,20.0,238.9,231.1,1153009399,1153009399,2,9.7,001400,001399,239.3,33.451240,-119.399103,9.68,NaN,NaN,16.013, NaN,NaN,NaN, NaN, NaN
20060716,002350,779009,33.450368,-119.400542,26.3,16.003,33.656,42.397,2164.04,0.0,12.443,15.930, NaN, NaN,24.713,   NaN,17.16,1010.42,94.61,17.17,31.9,29.6,9.3,8.4,298.2,299.6,5.8,4.8,NaN, NaN,20.0,238.9,229.8,1153009429,1153009429,2,9.8,001430,001429,238.7,33.450395,-119.400378,9.69,NaN,NaN,16.007, NaN,NaN,NaN, NaN, NaN
20060716,002420,779039,33.449515,-119.401812,26.5,16.039,33.640,42.413,2160.23,0.0,12.443,15.936, NaN, NaN,24.693,   NaN,17.20,1010.43,94.64,17.20,31.7,29.7,9.0,8.5,300.0,299.8,5.4,4.8,NaN, NaN,21.0,238.5,229.5,1153009459,1153009459,2,10.0,001460,001459,238.7,33.449540,-119.401647,9.80,NaN,NaN,16.043, NaN,NaN,NaN, NaN, NaN
20060716,002450,779070,33.448625,-119.403090,26.4,16.047,33.648,42.430,2157.98,0.0,12.480,15.944, NaN, NaN,24.697,   NaN,17.18,1010.42,94.63,17.16,34.1,30.2,9.0,8.3,304.0,301.7,5.7,4.7,NaN, NaN,19.0,238.6,228.3,1153009489,1153009489,2,10.0,001490,001489,238.9,33.448675,-119.402923,10.00,NaN,NaN,16.051, NaN,NaN,NaN, NaN, NaN
20060716,002520,779100,33.447786,-119.404390,26.4,16.069,33.643,42.445,2155.13,0.0,12.499,15.967, NaN, NaN,24.688,   NaN,17.16,1010.27,94.63,17.15,34.5,30.1,9.3,8.1,303.4,303.6,5.9,4.5,NaN, NaN,19.0,239.4,231.4,1153009519,1153009519,2,9.7,001520,001519,239.4,33.447820,-119.404222,9.86,NaN,NaN,16.073, NaN,NaN,NaN, NaN, NaN
20060716,002550,779129,33.446946,-119.405678,26.6,16.117,33.630,42.476,2157.42,0.0,12.480,15.996, NaN, NaN,24.667,   NaN,17.16,1010.36,94.66,17.16,32.9,30.5,9.0,8.0,302.2,305.3,5.6,4.4,NaN, NaN,20.0,238.2,229.1,1153009549,1153009549,2,9.8,001550,001549,238.5,33.446983,-119.405508,9.90,NaN,NaN,16.121, NaN,NaN,NaN, NaN, NaN
20060716,002620,779159,33.446128,-119.406955,26.6,16.180,33.626,42.532,2149.56,0.0,12.424,16.023, NaN, NaN,24.650,   NaN,17.13,1010.27,94.68,17.12,34.5,31.5,8.9,8.0,304.7,305.9,5.6,4.6,NaN, NaN,23.0,238.4,236.1,1153009579,1153009579,2,9.1,001580,001579,238.4,33.446143,-119.406792,9.97,NaN,NaN,16.184, NaN,NaN,NaN, NaN, NaN
20060716,002650,779189,33.445273,-119.408207,26.5,16.202,33.632,42.560,2142.67,0.0,12.480,16.040, NaN, NaN,24.649,   NaN,17.14,1010.24,94.70,17.14,39.3,32.5,9.1,8.1,309.5,306.0,6.1,4.8,NaN, NaN,21.0,238.5,227.4,1153009609,1153009609,2,10.0,001610,001609,239.2,33.445301,-119.408040,9.70,NaN,NaN,16.206, NaN,NaN,NaN, NaN, NaN
20060716,002720,779219,33.444451,-119.409473,26.2,16.210,33.636,42.573,2147.44,0.0,12.461,16.051, NaN, NaN,24.651,   NaN,17.14,1010.24,94.71,17.13,39.6,32.5,9.1,8.0,309.5,306.8,6.2,4.7,NaN, NaN,21.0,239.4,231.4,1153009640,1153009639,2,9.8,001640,001639,238.9,33.444473,-119.409312,9.67,NaN,NaN,16.214, NaN,NaN,NaN, NaN, NaN
20060716,002750,779250,33.443603,-119.410742,26.4,16.204,33.641,42.573,2144.55,0.0,12.536,16.070, NaN, NaN,24.656,   NaN,17.09,1010.25,94.71,17.08,38.5,32.3,9.2,7.7,307.7,308.9,6.2,4.4,NaN, NaN,19.0,238.9,231.9,1153009669,1153009669,2,10.3,001670,001669,238.5,33.443628,-119.410578,9.95,NaN,NaN,16.208, NaN,NaN,NaN, NaN, NaN
20060716,002820,779280,33.442745,-119.412037,26.4,16.202,33.638,42.566,2144.56,0.0,12.648,16.093, NaN, NaN,24.654,   NaN,17.08,1010.26,94.71,17.07,36.2,31.8,9.4,7.8,304.0,307.9,6.2,4.5,NaN, NaN,19.0,239.5,232.4,1153009699,1153009699,2,9.8,001700,001699,239.5,33.442771,-119.411875,10.30,NaN,NaN,16.206, NaN,NaN,NaN, NaN, NaN
20060716,002850,779309,33.441893,-119.413348,26.6,16.243,33.624,42.591,2137.84,0.0,12.630,16.111, NaN, NaN,24.634,   NaN,17.05,1010.21,94.74,17.06,36.3,30.7,9.7,8.0,304.0,306.0,6.4,4.5,NaN, NaN,17.0,239.2,232.2,1153009729,1153009729,2,9.9,001730,001729,239.2,33.441916,-119.413188,10.11,NaN,NaN,16.247, NaN,NaN,NaN, NaN, NaN
20060716,002920,779339,33.441043,-119.414643,26.6,16.271,33.624,42.618,2137.05,0.0,12.573,16.126, NaN, NaN,24.628,   NaN,17.03,1010.23,94.70,17.03,36.3,31.1,9.6,8.2,304.5,304.8,6.3,4.6,NaN, NaN,18.0,238.5,231.0,1153009759,1153009759,2,9.9,001760,001759,238.5,33.441060,-119.414478,10.05,NaN,NaN,16.275, NaN,NaN,NaN, NaN, NaN
20060716,002950,779369,33.440185,-119.415927,26.4,16.277,33.629,42.629,2135.13,0.0,12.555,16.137, NaN, NaN,24.630,   NaN,17.04,1010.13,94.69,17.02,36.3,31.9,9.4,8.2,305.2,305.4,6.1,4.7,NaN, NaN,19.0,239.5,233.0,1153009790,1153009789,2,9.9,001790,001789,239.5,33.440201,-119.415762,9.88,NaN,NaN,16.281, NaN,NaN,NaN, NaN, NaN
20060716,003020,779399,33.439340,-119.417233,26.5,16.272,33.630,42.625,2132.53,0.0,12.742,16.144, NaN, NaN,24.632,   NaN,16.98,1010.17,94.72,16.98,37.4,32.3,9.2,7.8,308.2,309.2,6.0,4.5,NaN, NaN,19.0,238.9,234.9,1153009819,1153009819,2,10.0,001820,001819,238.9,33.439361,-119.417073,10.03,NaN,NaN,16.276, NaN,NaN,NaN, NaN, NaN
20060716,003050,779430,33.438478,-119.418521,26.6,16.276,33.627,42.625,2124.05,0.0,12.704,16.143, NaN, NaN,24.629,   NaN,17.00,1010.18,94.77,17.00,38.0,32.3,9.1,7.6,309.4,311.2,6.0,4.3,NaN, NaN,20.0,238.2,234.3,1153009850,1153009849,2,9.9,001850,001849,238.2,33.438508,-119.418366,9.92,NaN,NaN,16.280, NaN,NaN,NaN, NaN, NaN
20060716,003120,779459,33.437623,-119.419791,26.1,16.272,33.626,42.620,2125.51,0.0,12.667,16.134, NaN, NaN,24.629,   NaN,16.98,1010.23,94.79,16.97,39.7,33.5,9.0,7.5,311.5,313.3,6.1,4.3,NaN, NaN,21.0,238.5,227.5,1153009879,1153009879,2,9.3,001880,001879,238.5,33.437643,-119.419635,9.84,NaN,NaN,16.276, NaN,NaN,NaN, NaN, NaN
20060716,003150,779489,33.436766,-119.421068,26.6,16.236,33.634,42.595,2122.50,0.0,12.760,16.135, NaN, NaN,24.643,   NaN,16.97,1010.12,94.82,16.97,42.1,35.1,8.9,7.3,314.4,316.9,6.2,4.3,NaN, NaN,21.0,238.5,233.9,1153009909,1153009909,2,9.6,001910,001909,238.4,33.436781,-119.420911,9.92,NaN,NaN,16.240, NaN,NaN,NaN, NaN, NaN
20060716,003220,779519,33.435908,-119.422341,26.4,16.253,33.616,42.591,2115.39,0.0,12.779,16.150, NaN, NaN,24.626,   NaN,16.94,1010.09,94.79,16.93,44.6,36.7,8.9,7.2,317.2,320.0,6.4,4.4,NaN, NaN,21.0,238.9,233.8,1153009939,1153009939,2,9.7,001940,001939,238.4,33.435923,-119.422190,9.94,NaN,NaN,16.257, NaN,NaN,NaN, NaN, NaN
20060716,003250,779549,33.435026,-119.423593,26.3,16.301,33.605,42.624,2121.85,0.0,12.779,16.162, NaN, NaN,24.606,   NaN,16.91,1010.11,94.82,16.91,44.2,37.8,8.7,7.1,318.5,322.0,6.2,4.4,NaN, NaN,22.0,238.6,228.4,1153009969,1153009969,2,10.1,001970,001969,238.7,33.435055,-119.423433,9.84,NaN,NaN,16.305, NaN,NaN,NaN, NaN, NaN
20060716,003320,779580,33.434185,-119.424840,26.5,16.320,33.609,42.647,2117.07,0.0,12.779,16.170, NaN, NaN,24.605,   NaN,16.90,1010.17,94.80,16.90,42.7,36.8,8.3,6.9,318.7,323.6,5.7,4.2,NaN, NaN,21.0,238.7,227.6,1153010000,1153009999,2,10.3,002000,001999,238.7,33.434171,-119.424726,10.22,NaN,NaN,16.324, NaN,NaN,NaN, NaN, NaN
20060716,003350,779610,33.433298,-119.426195,26.6,16.290,33.619,42.631,2107.76,0.0,12.742,16.170, NaN, NaN,24.620,   NaN,16.90,1010.06,94.84,16.91,40.8,35.1,8.3,6.7,317.7,324.4,5.6,3.9,NaN, NaN,21.0,240.2,235.2,1153010029,1153010029,2,10.0,002030,002029,240.0,33.433306,-119.426038,10.13,NaN,NaN,16.294, NaN,NaN,NaN, NaN, NaN
20060716,003420,779639,33.432443,-119.427491,26.4,16.308,33.609,42.636,2112.55,0.0,12.648,16.143, NaN, NaN,24.608,   NaN,16.88,1010.03,94.82,16.88,42.4,36.1,8.4,6.7,319.3,325.5,5.8,4.0,NaN, NaN,22.0,238.4,231.0,1153010060,1153010059,2,10.0,002060,002059,238.5,33.432453,-119.427336,10.07,NaN,NaN,16.312, NaN,NaN,NaN, NaN, NaN
20060716,003450,779669,33.431575,-119.428788,26.8,16.219,33.635,42.580,2110.87,0.0,12.648,16.111, NaN, NaN,24.648,   NaN,16.87,1010.04,94.79,16.87,45.1,37.6,8.4,6.5,321.0,328.6,6.1,4.0,NaN, NaN,23.0,238.0,235.5,1153010089,1153010089,2,9.7,002090,002089,237.9,33.431588,-119.428635,10.24,NaN,NaN,16.223, NaN,NaN,NaN, NaN, NaN
20060716,003520,779699,33.430683,-119.430075,26.6,16.167,33.627,42.522,2110.12,0.0,12.667,16.087, NaN, NaN,24.654,   NaN,16.87,1010.08,94.78,16.87,44.9,37.9,8.4,6.3,321.0,331.4,6.0,3.9,NaN, NaN,22.0,239.5,235.4,1153010119,1153010119,2,9.6,002120,002119,239.4,33.430696,-119.429925,10.21,NaN,NaN,16.171, NaN,NaN,NaN, NaN, NaN
20060716,003550,779729,33.429853,-119.431381,26.5,16.157,33.618,42.502,2104.06,0.0,12.779,16.064, NaN, NaN,24.649,   NaN,16.87,1010.01,94.82,16.87,44.4,37.3,8.6,6.5,320.3,329.9,6.1,4.0,NaN, NaN,21.0,239.5,236.0,1153010149,1153010149,2,9.4,002150,002149,239.5,33.429865,-119.431233,9.97,NaN,NaN,16.161, NaN,NaN,NaN, NaN, NaN
20060716,003620,779760,33.428998,-119.432658,26.6,16.140,33.615,42.482,2099.49,0.0,12.592,16.036, NaN, NaN,24.651,   NaN,16.85,1010.02,94.82,16.85,44.3,37.8,8.4,6.6,320.7,329.0,6.0,4.1,NaN, NaN,22.0,238.2,231.7,1153010179,1153010179,2,9.5,002180,002179,238.2,33.429023,-119.432511,9.84,NaN,NaN,16.144, NaN,NaN,NaN, NaN, NaN